Votre navigateur ne supporte pas le javascript!

velo boutique pro 2018

×

Avertissement

JUser::_load : impossible de charger l'utilisateur ayant l'ID 166

Résultats - dimanche, 18 novembre 2018 21:08

CX Ancenis

Espoirs/Séniors
1 7 LECUYER ANTOINE AC BREVINOIS 52441030359 Senior 00:51:20
2 8 LECUYER FRANCOIS AC BREVINOIS 52441030256 Senior 00:51:21 00:01
3 31 DURAND DYLAN UNION CYCLISTE CHOLET 49 52492580239 Senior 00:51:27 00:07
4 23 DREAN BENOIT NANTES DOULON VS 52442500043 Espoir 00:51:28 00:08
5 12 MORINIERE THOMAS VELO CLUB DE SAVENAY 52442710050 Senior 00:51:32 00:12
6 16 FOUQUET ALEXY UNION CYCLISTE CHOLET 49 52492580255 Espoir 00:51:34 00:14
7 17 TESSIER FLORIAN UNION CYCLISTE CHOLET 49 52492580254 Senior 00:51:50 00:30
8 25 VERGER MICKAEL TEAM U ANJOU 49 52492590081 Senior 00:52:03 00:43
9 22 LE BAYON LUCAS LA MALVILLOISE CYCLISME 52442760020 Senior 00:52:15 00:55
10 30 COCAUD Bastien VS Mesanger en cours Senior 00:52:31 01:11
11 9 RUEL QUENTIN AC BREVINOIS 52441030339 Espoir 00:52:33 01:13
12 26 FOUQUET VALENTIN VELO CLUB LUCEEN 52442490112 Senior 00:53:06 01:46
13 6 VOIRY REGIS US ST HERBLAIN 52440010409 Senior 00:53:53 02:33
14 19 SINGEOT MATHIEU CC CASTELBRIANTAIS 52440020483 Espoir 00:54:15 02:55
15 21 CHERRUAULT ROMAIN GUIDON MACHECOULAIS 52441200311 Senior 00:54:19 02:59
16 14 PLANTIVE MAXIME VELO SPORT VALLETAIS 52440080284 Senior 00:54:22 03:02
17 29 CHEVRIER BRICE VS CLISSONNAIS 52440370078 Espoir 00:54:32 03:12
18 15 RUAULT NATHAN VELO SPORT VALLETAIS 52440080303 Espoir 00:55:15 03:55
19 13 THOMAS SYLVAIN VELO CLUB DE SAVENAY 52442710058 Senior 00:55:36 04:16
20 27 BOUCHEREAU ROMAIN VS CLISSONNAIS 52440370096 Senior 00:56:46 05:26
21 10 TARDIF KEVIN VC SEBASTIENNAIS 52441970005 Senior 00:56:50 05:30
22 4 RAVARD JONATHAN US ST HERBLAIN 52440010221 Senior 00:57:30 06:10
23 3 MORIN XAVIER US ST HERBLAIN 52440010414 Senior 1 tour
24 1 CORNUAILLE BRICE VS MESANGER 52440350122 Senior 1 tour
25 2 MARTIN AURELIEN VS MESANGER 52440350155 Senior 1 tour
26 24 MORILLEAU RUDY PEDALE CHANTENAYSIENNE 52440420038 Senior 1 tour
27 20 ROUE JEAN FRANCOIS EV ANGERS DOUTRE 52490130016 Senior 1 tour
28 11 TENDRON HIPPOLYTE VC SEBASTIENNAIS 52441970247 Espoir 2 tours

Juniors
1 60 LE BOHEC AXEL VELO CLUB PORNICHET 52442590096 Jun 2 00:33:23
2 52 LETILLY KYLIAN US PONTCHATELAINE 52440030346 Jun 2 00:43:14 09:51
3 53 SUIRE KILLIAN US PONTCHATELAINE 52440030180 Jun 2 00:43:21 09:58
4 51 LE PUIL ETIENNE US PONTCHATELAINE 52440030119 Jun 1 00:44:22 10:59
5 61 CHEVREL Clément VTT PAYS DE VILAINE 43354380057 Jun 1 00:44:49 11:26
6 59 FOREST EMILIEN US ST HERBLAIN 52440010361 Jun 1 00:45:35 12:12
7 54 GLON MANUELLA OUST LANVAUX VTT 43563170001 Senior D 00:45:43 12:20
8 57 PEHUET SEBASTIEN CC CASTELBRIANTAIS 52440020189 Jun 1 00:46:22 12:59
9 58 BOURSIER GUILLAUME GUIDON MACHECOULAIS 52441200020 Jun 2 00:48:03 14:40
10 55 GLON PATRICIA OUST LANVAUX VTT 43563170002 Senior D 1 tour
11 56 GANTIER ALEXANDRE AC BREVINOIS 52441030258 Jun 2 1

Cadets
1 10 RUEL DORIAN AC BREVINOIS 52441030341 Cad 2 00:31:06
2 15 ALLAIRE NOA ROUE LIBRE ANDREZEENNE COM 52490780046 Cad 2 00:33:23 02:17
3 17 ROY KILLIAN VC HERBRETAIS 52850260040 Cad 2 00:31:20 00:14
4 9 SEYEUX QUENTIN VC CHATEAU GONTIER 52531360079 Cad 2 00:31:38 00:32
5 8 LEBRETON JULES VC CHATEAU GONTIER 52531360118 Cad 1 00:32:06 01:00
6 7 VENEREAU COME US ST HERBLAIN 52440010389 Cad 2 00:32:31 01:25
7 1 BREMOND SACHA VELO CLUB ANCENIEN 52442070049 Cad 1 00:32:42 01:36
8 5 TARDIF AXEL VC SEBASTIENNAIS 52441970003 Cad 1 00:33:04 01:58
9 11 PALIERNE MARVIN CC CASTELBRIANTAIS 52440020236 Cad 2 00:33:05 01:59
10 14 CHEDALEUX NOAH REDON OC 43350400343 Cad 2 0,33,23
11 4 LECOQ THOMAS VC SEBASTIENNAIS 52441970272 Cad 1 0,33,26
12 6 SAMAIR DORIAN US ST HERBLAIN 52440010362 Cad 2 0,34,16
13 3 HEBERT THEO VC SEBASTIENNAIS 52441970185 Cad 2 0,34,36
14 13 LE ROUX CLEMENT NANTES DOULON VS 52442500365 Cad 2 0,35,37
15 2 TEMPLE LUCAS VELO CLUB ANCENIEN 52442070182 Cad 1 0,35,44
16 12 ORILLARD LUCAS ENTENTE CYCLISTE CRAON-REN 52531420063 Cad 1 0,36,23

Minimes
1 6 ROUL CLEMENT ERDRE ET LOIRE CYCLISTE 52441000256 Min 2 00:20:08
2 28 LEMAITRE ANDY VELO CLUB PORNICHET 52442590133 Min 1 00:20:30 00:22
3 20 CELLE LUCA GUEMENE VTT 52440510188 Min 2 00:20:32 00:24
4 19 PAPIN ALEXANDRE SAINT LEGER CYCLISME 52491150030 Min 2 00:20:46 00:38
5 21 DANEL MATHIS GUEMENE VTT 52440510013 Min 2 00:20:49 00:41
6 29 RENAUD ALEXIS VELO SPORT VALLETAIS 52440080242 Min 2 00:21:04 00:56
7 7 TESSIER AUGUSTIN ERDRE ET LOIRE CYCLISTE 52441000193 Min 1 00:21:07 00:59
8 18 NAUD NOAM SAINT LEGER CYCLISME 52491150025 Min 1 00:21:19 01:11
9 1 GAUTIER MARIUS VELO CLUB ANCENIEN 52442070073 Min 2 00:21:21 01:13
10 23 LEFRANCOIS NINO TEAM CHALONNES CYCLISME 52492850043 Min 1 00:21:39 01:31
11 11 BAREAU CLEMENT BEAUPREAU VELO SPORT 52490270059 Min 1 00:21:42 01:34
12 26 GOUBAUD MATHEO VC CHALLANDAIS 52850240169 Min 2 00:22:02 01:54
13 13 BERNIER CORENTIN BEAUPREAU VELO SPORT 52490270228 Min 2 00:22:19 02:11
14 10 PEPION TOMY CC CASTELBRIANTAIS 52440020056 Min 1 00:22:24 02:16
15 17 BLANCHARD TOM SAINT LEGER CYCLISME 52491150022 Min 1 00:22:34 02:26
16 25 ROUSSELOT MANOA US PONTCHATELAINE 52440030444 Min 1 00:22:41 02:33
17 24 MAILLARD AXEL PEDALE PUCEULOISE 52442250134 Min 2 00:22:43 02:35
18 9 PEHUET NICOLAS CC CASTELBRIANTAIS 52440020098 Min 1 00:22:50 02:42
19 14 BRETAUDEAU EMILIEN ROUE LIBRE ANDREZEENNE COM 52490780129 Min 1 00:22:53 02:45
20 8 BOUCHEE GASPARD CC CASTELBRIANTAIS 52440020297 Min 1 00:23:10 03:02
21 12 BAUDRY MATEO BEAUPREAU VELO SPORT 52490270248 Min 2 00:23:42 03:34
22 16 MENARD DORIAN ROUE LIBRE ANDREZEENNE COM 52490780143 Min 1 00:23:58 03:50
23 5 DAUDIN PELE CLEMENT ERDRE ET LOIRE CYCLISTE 52441000033 Min 1 1 tour
24 27 TENDRON GUSTAVE VC SEBASTIENNAIS 52441970060 Min 1 1 tour
25 30 BIORET MALO VS COUERONNAIS 52440040144 Min 2 1 tour
26 2 MENNECHET ALEXIS VELO CLUB ANCENIEN 52442070185 Min 1 1 tour

Benjamins
1 22 CHERRUAULT JOAN US CHATEAUGIRON 43351010046 Benj 2 00:15:13
2 17 CORMERAIS MAXIME VC SEBASTIENNAIS 52441970167 Benj 2 00:15:22 00:09
3 25 VERGER AMAURY DURTAL VELO SPORT 52492880028 Benjamin 00:15:25 00:12
4 18 LAVAT THIBAUT VC SEBASTIENNAIS 52441970484 Benj 2 00:15:34 00:21
5 24 CHEDALEUX NOLAN VTT PAYS DE VILAINE 43354380116 Benj 2 00:15:35 00:22
6 14 RIPAUD MATHEO CC CASTELBRIANTAIS 52440020225 Benj 2 00:16:00 00:47
7 19 LE BOHEC LUCAS PEDALE PUCEULOISE 52442250027 Benj 2 00:16:06 00:53
8 23 MENARD THOMAS VELO SPORT VALLETAIS 52440080197 Benj 1 00:16:28 01:15
9 11 CHARPANTIER AEL CC CASTELBRIANTAIS 52440020568 Benj 1 00:16:33 01:20
10 26 GUILLOCHON JOAO LA MALVILLOISE CYCLISME 52442760011 Benjamin 00:16:37 01:24
11 8 PRESSE GASPARD VELO CLUB ANCENIEN 52442070188 Benj 2 00:16:40 01:27
12 10 DAYUS JULES ERDRE ET LOIRE CYCLISTE 52441000047 Benj 1 00:16:41 01:28
13 7 MOURGUES MAXENCE VELO CLUB ANCENIEN 52442070181 Benj 2 00:16:42 01:29
14 13 PINARD MATHEO CC CASTELBRIANTAIS 52440020574 Benj 2 00:17:03 01:50
15 27 LEFORT FABIEN BEAUPREAU VELO SPORT 52490270105 benjamin 00:17:05 01:52
16 15 DESMARS ALEXIS US PONTCHATELAINE 52440030394 Benj 2 00:17:07 01:54
17 16 LEMARIE ANTHOINE US PONTCHATELAINE 52440030046 Benj 1 00:17:35 02:22
18 21 GELINEAU ALEXIS SAINT LEGER CYCLISME 52491150037 Benj 2 00:17:44 02:31
19 12 GAUTIER PIERRE CC CASTELBRIANTAIS 52440020255 Benj 2 00:17:47 02:34
20 20 RONDEAU MATHYS ROUE LIBRE ANDREZEENNE COM 52490780149 Benj 1 00:18:16 03:03
21 3 FAUVEL ANTONIN VELO CLUB ANCENIEN 52442070184 Benj 1 1 tour
22 9 SUIRE RAPHAEL VELO CLUB ANCENIEN 52442070187 Benj 1 1 tour
23 1 BALAVOINE DORIAN VELO CLUB ANCENIEN 52442070200 Benj 2 1 tour
24 4 GAUDIN JULIANO VELO CLUB ANCENIEN 52442070078 Benj 2 1 tour
25 5 LANET MARIUS VELO CLUB ANCENIEN 52442070201 Benj 1 2 tour

PC
1 34 PLANTARD LAURENT EV ANGERS DOUTRE 52490130277 Master 00:47:19
2 20 LEMAITRE BERTRAND AC BREVINOIS 52441030012 Master 00:47:32 00:13
3 16 PERRAUD CHRISTOPHER US PONTCHATELAINE 52440030437 Pass 00:48:17 00:58
4 46 COUTURIER Matthieu OCCV DRAGUIGNAN 53830730059 Pass D1 00:48:56 01:37
5 14 FILLONNEAU MATHIEU US PONTCHATELAINE 52440030459 Pass 00:49:21 02:02
6 2 PRESSE FRANCOIS VELO CLUB ANCENIEN 52442070132 Master 00:49:31 02:12
7 4 DELAGE KEVIN VS MESANGER 52440350123 Pass 00:49:45 02:26
8 8 LEDUC TANGUY SAINT LEGER CYCLISME 52491150121 Pass 00:49:47 02:28
9 17 DELAUNAY VINCENT VELO CLUB DE SAVENAY 52442710051 Pass 00:50:01 02:42
10 10 ROY GERMAIN SAINT LEGER CYCLISME 52491150032 Pass 00:50:03 02:44
11 1 EDET DAVID VELO CLUB ANCENIEN 52442070198 Master 00:50:30 03:11
12 45 BLANCHARD ROMUALD VTTARDS GARNACHOIS 52855520009 Master 00:50:39 03:20
13 36 LE BOHEC THIERRY PEDALE PUCEULOISE 52442250079 Master 00:50:46 03:27
14 39 GAUTIER YOHAN TEAM CHALONNES CYCLISME 52492850029 Master 00:51:20 04:01
15 15 LESCOP DAVID US PONTCHATELAINE 52440030447 Pass 00:51:37 04:18
16 33 DROUET CYRIL EC MONTFAUCONNAISE 52491180043 Master 00:51:49 04:30
17 42 AALOUANE JAMEL VELO CLUB LUCEEN 52442490120 Master 00:51:53 04:34
18 30 DROUET CLAUDE VC BLINOIS 52440630109 Master 00:52:12 04:53
19 31 RIVAL DAMIEN VC BLINOIS 52440630118 Master 00:52:13 04:54
20 44 BIGEARD KEVIN VS COUERONNAIS 52440040028 Pass 00:52:39 05:20
21 13 EGREAU JEAN JACQUES GPC ANGEVIN 52492400010 Pass 00:52:40 05:21
22 5 THIEVIN JOANIS VS MESANGER 52440350205 Pass 00:52:46 05:27
23 12 BOURIEAU GUILLAUME GPC ANGEVIN 52492400017 Master 00:52:47 05:28
24 29 PERS STEPHANE PEDALE CHANTENAYSIENNE 52440420008 Master 00:53:42 06:23
25 37 JOUIN CEDRIC ROUE LIBRE ANDREZEENNE COM 52490780018 Pass 00:53:45 06:26
26 21 RUEL STEPHANE AC BREVINOIS 52441030338 Master 1 tour
27 25 GUILLET BRUNO CC CASTELBRIANTAIS 52440020593 Master 1 tour
28 22 JOUNEAU FABRICE AC CHAPELAIN 52442260056 Master 1 tour

Remerciements au VC Ancenis.

Résultats - dimanche, 04 novembre 2018 20:36

CX St Brévin

Espoirs/séniors
1 LECUYER Antoine FRA St Brévin AC Sen
2 LECUYER Francois FRA St Brévin AC Sen
3 MORINIERE Thomas FRA Savenay VC Sen
4 DREAN Benoit FRA Nantes Doulon 3 c
5 LE BAYON Lucas FRA Loire Marais Sen
6 RUEL Quentin FRA St Brévin AC Jun
7 DENIS Erwann FRA Vallet VS Jun
8 ROPERT Julien FRA Vallet VS 3 c
9 CHERRUAULT Romain FRA Machecoul G Sen
10 GUITTON Valentin joël FRA Pontchâteau U 3 c
11 LOUERAT Sebastien FRA St Brévin AC Sen
12 COTTIN Guillaume FRA Ste Luce VC 3 c
13 VINCENT Joris FRA Nantes Atlant Pc
14 SINGEOT Mathieu FRA Chateaubriant 3 c
15 EDET David FRA Ancenis VC Sen
16 VALLET Baptiste FRA StHerblain US
17 PRESSE Francois FRA Ancenis VC Sen
18 BOUCHEREAU Romain FRA Clisson VS Sen
19 FILLONNEAU Mathieu FRA Pontchâteau U Sen
20 PLANTIVE Maxime FRA Vallet VS Sen
21 CHEVRIER Brice FRA Clisson VS Jun
22 HUBERT Jorry FRA Pontchâteau U Sen
23 GROSSI Mickael FRA StHerblain US Sen
24 LAUREAU Xavier FRA Savenay VC Sen
25 AALOUANE Jamel FRA Ste Luce VC Sen
26 CORNUAILLE Brice FRA Mésanger VS Sen
27 HUCHET Thomas FRA Vallet VS Po2
28 MORILLEAU Rudy FRA Chantenay P Sen
29 DELAGE Kevin FRA Mésanger VS Sen
30 HOUSSAIS Jesril FRA EC du Don Sen
31 QUESNEL Aubin FRA Nantes Atlant Po1
32 DOLU Cyril FRA St Brévin AC Sen
33 LESCOP DAVID FRA Pontchâteau U Sen
34 RIVAL Damien FRA Blain VC Pc3
35 GOURHAND Emmanuel FRA St Brévin AC Sen
36 LORENT Kevin FRA StHerblain US
37 CORBIN Simon FRA MusetteBauloi Sen
38 MILOUX Ludovic FRA Nantes Atlant Jun
39 CLOAREC Benoit FRA Chateaubriant Sen
40 TESSIER Matthieu FRA EC du Don Sen
41 BIGEARD Kevin FRA VS COUERON
42 MENET Gildas FRA La Chapelle A Sen
43 FAUVEAU Ludovic FRA Chantenay P Sen
44 JOUNEAU Fabrice FRA La Chapelle A Sen
45 GUILLET Bruno FRA Chateaubriant Sen
46 mabire michel FRA pornichet VC Pc
47 MOREAU Laurent FRA Savenay VC Sen
48 PRAT Sebastien FRA Savenay VC Sen
49 LOUERAT Samuel FRA la malviloise Pc
50 MORIN Xavier FRA StHerblain US
51 LE BOHEC Thierry FRA Puceul P Sen

Juniors
1 BOLGIANI Gabriel FRA Pornichet VC Cad
2 BAILLY Corentin FRA Machecoul G Cad
3 MAILLARD Timothe FRA Puceul P Cad
4 BAUBRY Tom FRA Machecoul G Jun
5 BERNARD Lillyan FRA Machecoul G Jun
6 LETILLY Kylian FRA Pontchâteau U Jun
7 SUIRE Killian FRA Pontchâteau U Jun
8 BRISARD Alexandre FRA Vallet VS Jun
9 LE BOHEC Axel FRA Pornichet VC Jun
10 LE PUIL Etienne FRA Pontchâteau U Cad
11 BOHAL Victor FRA UCNantes Atl Jun
12 FOREST Emilien FRA StHerblain US Cad
13 POUVREAU Enzo FRA UCNantes Atl Jun
14 BRIAND Baptiste FRA Puceul P Cad
15 PEHUET Sebastien FRA Chateaubriant Cad
16 BOURSIER Guillaume FRA Machecoul G Jun
17 MEREL Axel FRA Puceul P Cad
18 CARCAUD Yannis FRA Pontchâteau U Jun
19 BARBIER Emeline FRA St Brévin AC Jun
20 CHIRON Mathilde FRA St Brévin AC Jun
21 TRIBALLIER Marie Rose FRA Pontchâteau U Jun
22 GANTIER Alexandre FRA St Brévin AC
23 CAMUS Ronan FRA Loire Marais Cad
24 PERRAY Paul FRA Chateaubriant Cad

Cadets
1 RUEL Dorian FRA St Brévin AC Cad
2 LE CLAIRE Noa FRA Pontchâteau U Min
3 LUCAS Quentin FRA Pontchâteau U Cad
4 HAMBENNE Axel FRA Nantes Atlant Min
5 BABIN Gregoire FRA St Brévin AC Cad
6 CHIRON Quentin FRA Erdre Loire Cad
7 AVERTY Mathys FRA St Sébastien Min
8 LE ROUX Clement FRA Nantes Doulon Cad
9 PINEAU Lucas FRA Clisson VS Min
10 COSSARD Pierre FRA Nantes Doulon Cad
11 VENEREAU Come FRA StHerblain US Cad
12 PALIERNE Marvin FRA Chateaubriant Cad
13 GIRAUDET Victor FRA Couëron VS Cad
14 HEBERT Theo FRA St Sébastien Cad
15 PEDRON Baptiste FRA Pontchâteau U Min
16 TEMPLE Lucas FRA Ancenis VC Min
17 TARDIF Axel FRA St Sébastien Min
18 BREMOND Sacha FRA Ancenis VC Min
19 LECOQ Thomas FRA St Sébastien Min
20 BROSSEAU Leo FRA St Brévin AC Min
21 IMBERT Lilian FRA Machecoul G Min
22 SAMAIR Dorian FRA StHerblain US Cad
23 foucher augustin FRA St Brévin AC Cad
24 LEMARIE Thibault FRA Pontchâteau U Min
25 TRIBALLIER Yael FRA Pontchâteau U Cad

Minimes
1 ROUXEL Eliot FRA Chateaubriant Min
2 HOUIS Esteban FRA Pontchâteau U Min
3 LEMAITRE Andy FRA Pornichet VC Min
4 RENAUDINEAU Axel FRA Nantes Atlant Min
5 ROUL Clement FRA Erdre Loire Min
6 DANEL Mathis FRA Guémené Penfa Min
7 CELLE Luca FRA Guémené Penfa Min
8 TESSIER Augustin FRA Erdre Loire
9 PAVAGEAU Louis FRA Chateaubriant Min
10 GAUTIER Marius FRA Ancenis VC Min
11 BRETECHE Ewen FRA Puceul P
12 ROUSSELOT Manoa FRA Pontchâteau U
13 NEVEUX Maeva FRA Chateaubriant
14 PEPION Tomy FRA Chateaubriant
15 BARTHEAU Andreas FRA Machecoul G Min
16 ROBERT Morgane FRA Chateaubriant
17 PEHUET Nicolas FRA Chateaubriant
18 CORABOEUF Lea FRA Chateaubriant
19 TENDRON Gustave FRA St Sébastien
20 MAILLARD Axel FRA Puceul P Min
21 JAHAN Andrea FRA Machecoul G Min
22 TOUZE Bastien FRA Pontchâteau U Min
23 GOURHAND Nathan FRA Pontchâteau U Min
24 ONDRACKA Victor FRA St Brévin AC
25 CARCAILLON Enzo FRA St Brévin AC Min
26 DAUDIN PELE Clement FRA Erdre Loire

Remerciements à Michel Quirion

Résultats - jeudi, 01 novembre 2018 19:37

CX Notre Dame de Monts

Espoirs/séniors
1 21 GUILBAUD GUILLAUME VELO CLUB ESSARTAIS 52851060282 Senior 00:52:13
2 31 BLANCHARD DORIAN AS ST HILAIRE DE RIEZ CYCLISME52850600076 Senior 00:53:27 01:14
3 8 FAUCONNIER DAVID LES SABLES VENDEE CYCLISME 52850200103 Senior 00:53:32 01:19
4 23 BILLET DIMITRI ST JEAN DE MONTS VENDEE CYC 52852840258 Espoir 00:54:06 01:53
5 38 TENAILLEAU LYLIAN POC COTE DE LUMIERE 52852830267 Senior 00:54:07 01:54
6 2 CHANTREAU JULIEN VTTARDS GARNACHOIS 52855520004 Senior 00:54:07 01:54
7 63 LE BAYON LUCAS LA MALVILLOISE CYCLISME 52442760020 Senior 00:54:28 02:15
8 45 DENIS ERWANN VELO SPORT VALLETAIS 52440080248 Espoir 00:54:33 02:20
9 14 VOIRY REGIS US ST HERBLAIN 52440010409 Senior 00:54:46 02:33
10 37 MORIN ERWAN POC COTE DE LUMIERE 52852830268 Espoir 00:54:49 02:36
11 67 PIVETEAU PIERRE VS DOMPIERROIS 52852910177 Senior 00:54:53 02:40
12 30 RUEL QUENTIN AC BREVINOIS 52441030339 Espoir 00:56:02 03:49
13 17 PONTREAU THIBAUT VC CHALLANDAIS 52850240202 Senior 00:56:13 04:00
14 52 GIRAUDET MATHIEU LA ROCHE SUR YON VENDEE CYC52850640379 Senior 00:56:29 04:16
15 25 SENECHAL MICKAEL ST JEAN DE MONTS VENDEE CYC 52852840194 Senior 00:56:41 04:28
16 59 HUTIN EMMANUEL VENDEE U PAYS DE LA LOIRE 52852920170 Senior 00:56:43 04:30
17 7 BARRETEAU CHARLES LES SABLES VENDEE CYCLISME 52850200046 Senior 00:56:47 04:34
18 41 GUITTON VALENTIN JOEL US PONTCHATELAINE 52440030122 Espoir 00:56:50 04:37
19 36 LE DU GWENDAL HENNEBONT CYCLISME 43562010032 Espoir 00:56:50 04:37
20 50 CLEMENCEAU FABRICE CHAMPAGNE SUD VENDEE CYCLI 52853040041 Senior 00:57:40 05:27
21 22 MARTINEAU JIMMY VELO CLUB ESSARTAIS 52851060026 Espoir 00:57:44 05:31
22 72 CORBINEAU JULIEN ST JEAN DE MONTS VENDEE CYC 52852840124 Senior 00:57:46 05:33
23 20 CHAPELEAU DAVID VELO CLUB ESSARTAIS 52851060229 Senior 00:57:48 05:35
24 35 CORBIHAN CHRISTOPHE HENNEBONT CYCLISME 43562011027 Senior 00:57:50 05:37
25 49 GRIMAUD SEBASTIEN AMICALE VELO TALMONT ST HILA 52853050053 Senior 00:58:12 05:59
26 16 GIRAUDET VINCENT VC CHALLANDAIS 52850240409 Senior 00:58:22 06:09
27 46 ROPERT JULIEN VELO SPORT VALLETAIS 52440080247 Espoir 00:59:04 06:51
28 13 VALLET BAPTISTE US ST HERBLAIN 52440010100 Senior 00:59:07 06:54
29 69 BOUYER SEBASTIEN UC CHOLET 49 52492580272 Senior 00:59:09 06:56
30 68 MORIN XAVIER US ST HERBLAIN 52440010414 Senior 00:59:22 07:09
31 11 GROSSI MICKAEL US ST HERBLAIN 52440010085 Senior 00:59:25 07:12
32 60 RICHARD FLORIAN VS DOMPIERROIS 52852910145 Senior 01:00:00 07:47
33 53 LE BOHEC THIERRY PEDALE PUCEULOISE 52442250079 Senior 1 tour
34 61 MORILLEAU RUDDY RED CHANTNIESME 0 Senior 1 tour
35 34 DROUET CYRIL EC MONTFAUCONNAISE 52491180043 Senior 1 tour
36 19 BEAUPEU QUENTIN VELO CLUB ESSARTAIS 52851060112 Senior 1 tour
37 40 LEROUX SEBASTIEN SS NIEULAISE 52850250007 Senior 1 tour
38 5 PERDRIEAU ROMARIC VTTARDS GARNACHOIS 52855520015 Senior 1 tour
39 58 AALOUANE JAMEL VELO CLUB LUCEEN 52442490120 Senior 1 tour
40 57 COUSSEAU MIGUEL VELO CLUB DE VENANSAULT 52852860017 Senior 1 tour
41 54 JOURDAIN CYRIL VC CHANTONNAISIEN 52850230006 Senior 1 tour
42 15 FRADIN ALAIN VC CHALLANDAIS 52850240052 Senior 1 tour
43 62 PERS STEPHANE PEDALE CHANTENAYSIENNE 52440420008 Senior 1 tour
44 29 DOLU CYRIL AC BREVINOIS 52441030347 Senior 1 tour
45 33 BARRE QUENTIN EC MONTFAUCONNAISE 52491180039 Senior 1 tour
46 1 LOISEAU JEAN MICHEL COMITE CYCLISTE MONTOIS 52850970196 Senior 1 tour
47 47 GUILLOCHON MICKAEL LA MALVILLOISE CYCLISME 52442760012 Senior 1 tour
48 24 HOUSSAIS CORENTIN ST JEAN DE MONTS VENDEE CYC 52852840172 Senior 1 tour
49 28 NIZAN FLORENT VENDEE SPORT LANGONNAIS 52853070010 Senior 1 tour
50 71 BILLET FABIEN ST JEAN DE MONTS VENDEE CYC 52852840110 Senior 1 tour
51 64 PERRIN ERWAN. LA MALVILLOISE CYCLISME 52442760009 Senior 1 tour
52 55 PELAUD Victorien VC CORME-ROYAL 50172320016 Senior 1 tour
53 27 GIRAUD ROMAIN VENDEE SPORT LANGONNAIS 52853070008 Senior 1 tour
54 65 ROBARD DOMINIQUE VC CHALLANDAIS 52850240303 Senior 1 tour
55 39 LEROUX DAVID SS NIEULAISE 52850250005 Senior 1 tour
56 18 THIBAUD GILBERT VC CHALLANDAIS 52850240005 Senior 1 tour
57 10 LANDRIN JEAN LES SABLES VENDEE CYCLISME 52850200019 Senior 1 tour
58 66 MABIRE MICHEL VELO CLUB PORNICHET 52442590077 Senior 1 tour
59 9 FAVREAU YVES LES SABLES VENDEE CYCLISME 52850200109 Senior 1 tour
60 48 HERVE THIERRY LA MALVILLOISE CYCLISME 52442760019 Senior 2 tours
61 12 LORENT KEVIN US ST HERBLAIN 52440010387 Espoir 2 tours
62 43 MOREAU LAURENT VELO CLUB DE SAVENAY 52442710063 Senior 2 tours
63 26 BONNAUD LAURENT VENDEE SPORT LANGONNAIS 52853070009 Senior 2 tours
64 51 VENDAY FLORIAN CYCLISME REGION POUZAUGES 52852810082 Senior 2 tours
65 44 PRAT SEBASTIEN VELO CLUB DE SAVENAY 52442710062 Senior 2 tours

Juniors
1 82 BODARD DAMIEN ST JEAN DE MONTS VENDEE CYC 52852840072 Jun 2 00:39:30
2 83 BILLET ADRIEN VC CHALLANDAIS 52850240190 Jun 1 00:41:09 01:39
3 81 MASSOULIER ERWAN POC COTE DE LUMIERE 52852830191 Jun 2 00:41:29 01:59
4 86 MAILLARD TIMOTHE PEDALE PUCEULOISE 52442250040 Jun 1 00:42:43 03:13
5 93 TEXIER THOMAS LES SABLES VENDEE CYCLISME 52850640585 Jun 2 00:42:45 03:15
6 87 LE BOHEC AXEL VELO CLUB PORNICHET 52442590096 Jun 2 00:45:26 05:56
7 85 CAMUS RONAN LA MALVILLOISE CYCLISME 52442760004 Jun 1 1 tour
8 92 AMZIANE SOFIANE TEAM CYCLISTE CHOLETAIS 52492860115 Jun 1 1 tour
9 84 BOURSIER GUILLAUME GUIDON MACHECOULAIS 52441200020 Jun 2 1 tour
10 91 PERRIN AYMERIC LA MALVILLOISE CYCLISME 52442760010 Jun 2 1 tour
11 89 BERTHOME ALEXANDRA ST JEAN DE MONTS VENDEE CYC 52852840006 Senior D 1 tour
12 88 TERRIEN MARTINE AS ST HILAIRE DE RIEZ CYCLISME52850600011

Cadets
1 48 RUEL DORIAN AC BREVINOIS 52441030341 Cad 2 00:35:05
2 41 GIRAUDET CHARLY VC CHALLANDAIS 52850240269 Cad 2 00:36:56 01:51
3 43 LEDANOIS KILIAN VC CHALLANDAIS 52850240427 Cad 2 00:37:09 02:04
4 55 AVERTY MATHYS VC SEBASTIENNAIS 52441970430 Cad 1 00:37:12 02:07
5 54 BENOIT Julien V.C.CHARENTE OCEAN 50170300503 Cad 1 00:37:15 02:10
6 45 MERIAU TOM VC CHALLANDAIS 52850240286 Cad 2 00:37:44 02:39
7 42 JOSLAIN IBAN VC CHALLANDAIS 52850240456 Cad 1 00:38:50 03:45
8 57 GIRAUDET VICTOR VS COUERONNAIS 52440040017 Cad 2 00:39:18 04:13
9 53 VENEREAU COME US ST HERBLAIN 52440010389 Cad 2 00:39:19 04:14
10 51 VENDAY ANTONIN CYCLISME REGION POUZAUGES 52852810201 Cad 1 00:39:20 04:15
11 46 OUNZAR ALI VC CHALLANDAIS 52850240152 Cad 1 00:40:29 05:24
12 44 MENUET THOMAS VC CHALLANDAIS 52850240412 Cad 1 00:42:00 06:55
13 56 GABORIT ELIAN VC ST GILLES CROIX DE VIE 52852850130 Cad 1 00:43:38 08:33
14 52 IMBERT LILIAN GUIDON MACHECOULAIS 52441200008 Cad 1 1 tour

Minimes
1 5 MENANTEAU LUCAS LA ROCHE SUR YON VENDEE CYC52850640088 Min 1 00:22:12
2 7 LEMPERIERE JULES AIZENAY VELOS SPORTS 52850830095 Min 2 00:22:12
3 20 GROLIER ROBIN VC DU PAYS DE LA CHATAIGNER 52850610006 Min 1 00:22:14 00:02
4 8 RAFFIN AXEL AIZENAY VELOS SPORTS 52850830085 Min 2 00:22:14 00:02
5 3 PERRAUDEAU RONAN VC CHALLANDAIS 52850240039 Min 1 00:22:17 00:05
6 6 RABREAU RUDY LA ROCHE SUR YON VENDEE CYC52850640090 Min 2 00:22:29 00:17
7 11 CHARDON JOHAN LES SABLES VENDEE CYCLISME 52850200178 Min 1 00:22:31 00:19
8 1 GABORIT KILLIAN VC CHALLANDAIS 52850240082 Min 1 00:22:47 00:35
9 19 RENAUDINEAU AXEL UC NANTES ATLANTIQUE 52440070173 Min 2 00:22:48 00:36
10 27 BRISARD INES VC CHALLANDAIS 52850240277 Min 2 D 00:22:51 00:39
11 12 FERRE MATTEO LES SABLES VENDEE CYCLISME 52850200185 Min 1 00:23:31 01:19
12 4 AVRIL LOUIS LA ROCHE SUR YON VENDEE CYC52850640209 Min 1 00:23:34 01:22
13 16 ALMIN Martin AS TOURLAVILLE CYCLISME 49500100428 Min 1 00:23:53 01:41
14 9 BARTHEAU ANDREAS GUIDON MACHECOULAIS 52441200309 Min 2 00:24:28 02:16
15 18 CROCHET ENZO POC COTE DE LUMIERE 52852830293 Min 2 00:24:33 02:21
16 13 CHAUVAT LOEVAN ROUE LIBRE ANDREZEENNE COM 52490780042 Min 1 00:25:09 02:57
17 23 CORABOEUF LEA CC CASTELBRIANTAIS 52440020604 Min 1 D 00:25:09 02:57
18 14 DIXNEUF DURAND BAPTISTE ROUE LIBRE ANDREZEENNE COM 52490780041 Min 1 00:25:10 02:58
19 2 GOUBAUD MATHEO VC CHALLANDAIS 52850240169 Min 2 00:25:11 02:59
20 21 DIEZ MARCO VELO CLUB ESSARTAIS 52851060081 Min 2 00:25:13 03:01
21 15 ONDRACKA VICTOR AC BREVINOIS 52441030058 Min 1 00:25:26 03:14
22 17 GARCIA Estéban PEDALE SEMUROISE 42210730062 Min 1 00:25:31 03:19
23 25 JAHAN ANDREA GUIDON MACHECOULAIS 52441200267 Min 2 D 00:25:32 03:20
24 28 DRUEZ BASTIEN COMITE CYCLISTE MONTOIS 52850970047 Min 1 00:28:35 06:23
25 10 LOGE QUENTIN GUIDON MACHECOULAIS 52441200162 Min 1 00:28:47 06:35
26 26 LAGADEC LENA GUIDON MACHECOULAIS 52441200294 Min 1 D 1 tour
27 24 GIRAUD MANUELA CYCLISME REGION POUZAUGES 52852810279 Min 1 D 1 tour

Prélicenciés
1 92 RONDEAU JULIETTE COMITE CYCLISTE MONTOIS 0 Prél 3 D
2 91 TRIVUN PALOMA VC CHALLANDAIS 52850240474 Prél 3 D

Remerciements à Marie-Christine laloi

Résultats - dimanche, 28 octobre 2018 20:35

CX Teillé

Espoirs/Séniors
1 12 10010164267 52440070745 FERASSE THIBAULT UC NANTES ATLANTIQUE Senior
2 8 10011414355 52441030359 LECUYER ANTOINE AC BREVINOIS Senior
3 9 10024044563 52441030256 LECUYER FRANCOIS AC BREVINOIS Senior
4 54 10014682750 52492580255 FOUQUET ALEXY UNION CYCLISTE CHOLET 49 Espoir
5 3 10012843891 52442710050 MORINIERE THOMAS VELO CLUB DE SAVENAY Senior
6 26 10012344949 43350910016 DEROUINT JEREMY US VERN CYCLISME Senior
7 53 10014190777 52442500043 DREAN BENOIT NANTES DOULON VS Espoir
8 14 10013624238 52492580239 DURAND DYLAN UNION CYCLISTE CHOLET 49 Senior
9 15 10013624743 52492580254 TESSIER FLORIAN UNION CYCLISTE CHOLET 49 Senior
10 33 52440070724 VINCENT JORIS UC NANTES ATLANTIQUE Senior
11 34 COCAUD BASTIEN CLUB NEUTRE SENIOR
12 51 10025199469 52441030339 RUEL QUENTIN AC BREVINOIS Espoir
13 4 10024625048 52442710058 THOMAS SYLVAIN VELO CLUB DE SAVENAY Senior
14 7 10014764289 52442490112 FOUQUET VALENTIN VELO CLUB LUCEEN Senior
15 10 10025477234 52442440034 HOUSSAIS JESRIL ETOILE CYCLISTE DU DON Senior
16 32 10025518660 52440370096 BOUCHEREAU ROMAIN VS CLISSONNAIS Senior
17 13 10024051132 52440070286 GENET STEPHANE UC NANTES ATLANTIQUE Senior
18 31 10067787927 52852920170 HUTIN EMMANUEL VENDEE U PAYS DE LA LOIRE Senior
19 11 10024742761 52442440068 TESSIER MATTHIEU ETOILE CYCLISTE DU DON Senior
20 52 10015494015 52440020483 SINGEOT MATHIEU CC CASTELBRIANTAIS Espoir
21 25 10024926758 52442250079 LE BOHEC THIERRY PEDALE PUCEULOISE Senior
22 28 10024036580 52850240270 BUGEL YVON VC CHALLANDAIS Senior
23 2 10026026801 52442710051 DELAUNAY VINCENT VELO CLUB DE SAVENAY Senior
24 30 10028048542 52440080284 PLANTIVE MAXIME VELO SPORT VALLETAIS Senior
25 27 10024027890 52440630109 DROUET CLAUDE VC BLINOIS Senior
26 21 10026180684 52440350155 MARTIN AURELIEN VS MESANGER Senior
27 55 10015494722 52440030122 GUITTON VALENTIN JOEL US PONTCHATELAINE Espoir
28 24 10070211210 52440020587 CLOAREC BENOIT CC CASTELBRIANTAIS Senior
29 5 10027486851 52442490120 AALOUANE JAMEL VELO CLUB LUCEEN Senior
30 19 10025256659 52440010221 RAVARD JONATHAN US ST HERBLAIN Senior
31 22 10024030015 52442260056 JOUNEAU FABRICE AC CHAPELAIN Senior
32 29 10025938790 52442070020 LE ROUX STEPHANE VELO CLUB ANCENIEN Senior
33 36 52440020411 BEAUDOIN JEROME ERDRE ET LOIRE CYCLISTE Senior
34 35 ROUSSEL SEBASTIEN CC VERTOU SENIOR
35 23 10084743325 52721500234 GUILMET GUILLAUME BRETTE SPORTIF Senior
36 1 10024830061 52441000007 RAVARD MATTHIEU ERDRE ET LOIRE CYCLISTE Senior
37 56 10025600001 52441970247 TENDRON HIPPOLYTE VC SEBASTIENNAIS Espoir

Juniors/Dames
1 10 10074606522 52442590096 LE BOHEC AXEL VELO CLUB PORNICHET Jun 2
2 6 10072357132 52440030346 LETILLY KYLIAN US PONTCHATELAINE Jun 2
3 7 10072751802 52440030180 SUIRE KILLIAN US PONTCHATELAINE Jun 2
4 1 10068749439 52441000254 COCAULT PAUL ERDRE ET LOIRE CYCLISTE Jun 2
5 4 10070713586 52442250001 BRIAND BAPTISTE PEDALE PUCEULOISE Jun 1
6 8 10069438543 52440020189 PEHUET SEBASTIEN CC CASTELBRIANTAIS Jun 1
7 5 10070731067 52442250031 MEREL AXEL PEDALE PUCEULOISE Jun 1
8 9 10068405996 52441200020 BOURSIER GUILLAUME GUIDON MACHECOULAIS Jun 2
9 11 10070251626 52440350014 BOUMARD ROMAIN VS MESANGER Jun 1
10 2 10027053886 52441030416 CHIRON MATHILDE AC BREVINOIS Espoir

Cadets
1 55 10068281415 52441030341 RUEL DORIAN AC BREVINOIS Cad 2
2 54 10068284748 52441030144 BABIN GREGOIRE AC BREVINOIS Cad 2
3 59 10069157344 52442500365 LE ROUX CLEMENT NANTES DOULON VS Cad 2
4 58 10069437735 52440020236 PALIERNE MARVIN CC CASTELBRIANTAIS Cad 2
5 57 10067703455 52441970272 LECOQ THOMAS VC SEBASTIENNAIS Cad 1
6 51 10069157647 52442070049 BREMOND SACHA VELO CLUB ANCENIEN Cad 1
7 56 10067707600 52441970185 HEBERT THEO VC SEBASTIENNAIS Cad 2
8 61 10070057727 52440010362 SAMAIR DORIAN US ST HERBLAIN Cad 2
9 52 10067344151 52442070182 TEMPLE LUCAS VELO CLUB ANCENIEN Cad 1
10 60 10070730057 52442250004 LEBEAU GABIN PEDALE PUCEULOISE Cad 2

Minimes
1 162 10068749742 52441000256 ROUL CLEMENT ERDRE ET LOIRE CYCLISTE Min 2
2 161 10068750449 52441000033 DAUDIN PELE CLEMENT ERDRE ET LOIRE CYCLISTE Min 1
3 165 10069988918 52440020056 PEPION TOMY CC CASTELBRIANTAIS Min 1
4 169 10067705475 52441970060 TENDRON GUSTAVE VC SEBASTIENNAIS Min 1
5 163 10068749540 52441000193 TESSIER AUGUSTIN ERDRE ET LOIRE CYCLISTE Min 1
6 168 10070713384 52442250106 BRETECHE EWEN PEDALE PUCEULOISE Min 1
7 170 10069158758 52442070073 GAUTIER MARIUS VELO CLUB ANCENIEN Min 2
8 164 10069988615 52440020098 PEHUET NICOLAS CC CASTELBRIANTAIS Min 1
9 166 10068698717 52440020569 RIO MATHIS CC CASTELBRIANTAIS Min 1
10 167 10068266964 52721500124 GUILMET RAPHAEL BRETTE SPORTIF Min 1

Benjamins
1 136 10068754893 44363080119 CHABIRAND Pierre INDRE VELO PASSION Benj 2
2 139 10070729956 52442250027 LE BOHEC LUCAS PEDALE PUCEULOISE Benj 2
3 135 10068754792 44363080120 CHABIRAND Nicolas INDRE VELO PASSION Benj 2
4 142 10066508638 52440080209 GRIFFON NATHAN VELO SPORT VALLETAIS Benj 2
5 143 52442250011 HORNEC FRANS KARL PEDALE PUCEULOISE BENJ2
6 132 10068750752 52441000047 DAYUS JULES ERDRE ET LOIRE CYCLISTE Benj 1
7 137 10068947984 52442260030 JOUNEAU NOE AC CHAPELAIN Benj 1
8 140 10067044562 48913040121 MARTINEAU Théo UC LONGJUMELLOISE Benj 1
9 131 10068750247 52441000018 CHALAYE LOUIS ERDRE ET LOIRE CYCLISTE Benj 2
10 138 10068267065 52721500125 GUILMET AMAURY BRETTE SPORTIF Benj 1
11 134 10076034947 52441000268 PIOLAIN MAEL ERDRE ET LOIRE CYCLISTE Benj 2
12 144 52442070074 PECOT NOA VELO CLUB ANCENIEN BENJ1
13 141 10067704465 52441970167 CORMERAIS MAXIME VC SEBASTIENNAIS Benj 2

Pupilles
1 111 10068750853 52441000049 DAYUS NOE ERDRE ET LOIRE CYCLISTE Pup 1
2 116 52440080222 CORMERAIS TOM VELO SPORT VALLETAIS PUP 2
3 113 10070713485 52442250028 BRETECHE MENZO PEDALE PUCEULOISE Pup 2
4 112 10077561079 52441000269 TAILLANDIER ROMAN ERDRE ET LOIRE CYCLISTE Pup 1
5 115 10071676415 52440020234 FILLONNEAU BAUDOUIN LOUISON CC CASTELBRIANTAIS Pup 1 D
6 114 10079781773 52442250139 FONDIN MAXIME PEDALE PUCEULOISE Pup 2

Poussins
1 GEFFRAY LUCAS CC CASTELBRIANTAIS Pou2
2 MICHEL VICTOR ERDRE ET LOIRE CYCLISTE Pou 2
3 GUILMET LILY BRETTE SPORTIF Pou 2 D
4 CHALAYE AUGUSTIN ERDRE ET LOIRE CYCLISTE Pou 2

Remerciements à BELLEIL Gildas (ERDRE ET LOIRE CYCLISTE)

 

Résultats - dimanche, 28 octobre 2018 17:56

CX St Florent le Vieil

Espoirs/Séniors
1 BONSERGENT MAXIME UC NANTES ATLANTIQUE Espoir
2 VERGER MICKAEL TEAM U ANJOU 49 Senior
3 MALAQUIN AMAURY CC RENNAIS Espoir
4 HAMON KEVIN DESTINATION MTB RACE Senior
5 FUSEAU PIERRE ANGERS CYCLISME Senior
6 BOURDIN ANTOINE EC MONTFAUCONNAISE Senior
7 SOUFFACHE STELLIO EV ANGERS DOUTRE Senior
8 BELANGER Florentin AMICALE CYCLISTE BISONTINE Senior
9 PERCEVAULT TEDDY UNION CYCLISTE CHOLET 49 Espoir
10 DURAND DYLAN UNION CYCLISTE CHOLET 49 Senior
11 SOUCHARD VINCENT VERRIERES AC Espoir
12 RUEL QUENTIN AC BREVINOIS Espoir
13 AUBRY OLIVIER BRETTE SPORTIF Senior
14 ERCKELBOUDT MICKAEL PATRIOTE DE BONNETABLE Senior
15 LEFRANCOIS TIMOTHEE TEAM CHALONNES CYCLISME Senior
16 GABORIT STEVE V.C.CHATILLONNAIS Senior
17 BOBINET BRENDAN VC HERBRETAIS Senior
18 LEROY OLIVIER SAINT LEGER CYCLISME Senior
19 MARTINET JEAN FRANCOIS VC CHATEAU GONTIER Senior
20 DELAGE KEVIN VS MESANGER Senior
21 BOUYER SEBASTIEN TEAM CYCLISTE CHOLETAIS Senior
22 ROY GERMAIN SAINT LEGER CYCLISME Senior
23 LE BOHEC THIERRY PEDALE PUCEULOISE Senior
24 LEMOINE STEVE TEAM CHALONNES CYCLISME Senior
25 MAUDET BENOIT EV ANGERS DOUTRE Senior
26 BARRE QUENTIN EC MONTFAUCONNAISE Senior
27 TRAINEAU LUCAS VELO SPORT VALLETAIS Espoir
28 GAUTIER YOHAN TEAM CHALONNES CYCLISME Senior
29 WASSE LAURENT SC BEAUCOUZE Senior
30 DESMATS PHILIPPE VERRIERES AC Senior
31 DROUET CYRIL EC MONTFAUCONNAISE Senior
32 EGREAU JEAN JACQUES GPC ANGEVIN Senior
33 GOURHAND Emmanuel AC BREVINOIS Senior
34 ROUE JEAN FRANCOIS EV ANGERS DOUTRE Senior
35 BIGOT AXEL EV ANGERS DOUTRE Espoir
36 BLANCHARD CEDRIC SAINT LEGER CYCLISME Senior
37 GELINEAU REMI SAINT LEGER CYCLISME Senior
38 GUILLET BRUNO CC CASTELBRIANTAIS Senior
39 RAVARD Jonathan US ST HERBLAIN Senior
40 RAHARD ARNAUD CV DE CHEMILLE Senior
41 NAUD SEBASTIEN SAINT LEGER CYCLISME Senior
42 GILLIER YANNICK TEAM CHALONNES CYCLISME Senior
43 PERROUIN JEAN LUC CYCLISME REGION POUZAUGES Senior

Juniors
1 PAUMARD THIBAULT UNION CYCLISTE CHOLET 49 Junior 1
2 TEXIER THOMAS RVC VTT Junior 2
3 BIARD FRANCOIS AC BELMONTAISE Junior 2
4 BARBOT SERAPHIN VELO CLUB LIONNAIS Junior 1
5 MARAIS BENJAMIN VC HERBRETAIS Junior 1
6 OGER MATEO VC ROUBAIX LILLE METROPOLE Junior 2
7 TEXIER LUKA VELO CLUB VERROIS Junior 1
8 LE BOHEC AXEL VELO CLUB PORNICHET Junior 2
9 AMZIANE SOFIANE TEAM CYCLISTE CHOLETAIS Junior 1

Cadets
1 RUEL DORIAN AC BREVINOIS Cadet 2
2 GOUESSANT GABRIEL CC MONCONTOUR Cadet 1
3 DURAND ELIOTT TEAM CHALONNES CYCLISME Cadet 1
4 ROTUREAU THOMAS CV DE CHEMILLE Cadet 2
5 SEYEUX QUENTIN VC CHATEAU GONTIER Cadet 2
6 ALLAIRE NOA ROUE LIBRE ANDREZEENNE COMPETITION Cadet 2
7 LAIZE Calvin VC SAINT HILAIRE Cadet 2
8 CHAUCHIS LUCAS EV ANGERS DOUTRE Cadet 1
9 VENEREAU COME US ST HERBLAIN Cadet 2
10 JEBANE ENZO TEAM CYCLISTE CHOLETAIS Cadet 1
11 TALLONNEAU MEDHI TEAM CYCLISTE CHOLETAIS Cadet 2
12 AUBRY THOMAS ENTENTE CYCLISTE CRAON-RENAZE Cadet 1

Remerciements à Christophe MERLET (Président Team Chalonnes Cyclisme)

Résultats - dimanche, 21 octobre 2018 18:20

CX Châteaubriant

Organisation: CC Castelbriantais

C’est sur le magnifique circuit de Choisel que s’est disputé le traditionnel Cyclo-cross organisé par le cyclo club castelbriantais ; Le coureur C Bommé, licencié au VC Loudéac a fait cavalier seul, de bout en bout, en tête de l’épreuve, seul A Lécuyer a tenté de le suivre pendant quelques tours, mais le locférien, en pleine forme ne lui laissé aucune chance. Derrière, les coureurs : F Lécuyer, V et A Fouquet, M Verger, M Singeot, etc.. ont animé l’épreuve et maintenu le suspense pour le classement final.

Espoirs/Séniors
1 34 10009695435 43223140271 BOMME CLEMENT VC PAYS DE LOUDEAC Senior
2 17 10011414355 52441030359 LECUYER ANTOINE AC BREVINOIS Senior
3 30 10014682750 52492580255 FOUQUET ALEXY UNION CYCLISTE CHOLET 49 Espoir
4 15 10024044563 52441030256 LECUYER FRANCOIS AC BREVINOIS Senior
5 31 10024028803 52492590081 VERGER MICKAEL TEAM U ANJOU 49 Senior
6 22 10014764289 52442490112 FOUQUET VALENTIN VELO CLUB LUCEEN Senior
7 26 10012843891 52442710050 MORINIERE THOMAS VELO CLUB DE SAVENAY Senior
8 35 10012344949 43350910016 DEROUINT JEREMY US VERN CYCLISME Senior
9 16 10025199469 52441030339 RUEL QUENTIN AC BREVINOIS Espoir
10 18 10005852114 52441200311 CHERRUAULT ROMAIN GUIDON MACHECOULAIS Senior
11 27 10024625048 52442710058 THOMAS SYLVAIN VELO CLUB DE SAVENAY Senior
12 2 10015494015 52440020483 SINGEOT MATHIEU CC CASTELBRIANTAIS Espoir
13 32 10014941216 52492590163 DELAHAYE ALEXANDRE TEAM U ANJOU 49 Espoir
14 5 10071284068 52440030437 PERRAUD CHRISTOPHER US PONTCHATELAINE Senior
15 6 10024051132 52440070286 GENET STEPHANE UC NANTES ATLANTIQUE Senior
16 10 10025789957 52440350123 DELAGE KEVIN VS MESANGER Senior
17 8 10025572214 52440080247 ROPERT JULIEN VELO SPORT VALLETAIS Espoir
18 20 10025477234 52442440034 HOUSSAIS JESRIL ETOILE CYCLISTE DU DON Senior
19 19 10024926758 52442250079 LE BOHEC THIERRY PEDALE PUCEULOISE Senior
20 23 10025197853 52442490113 COTTIN GUILLAUME VELO CLUB LUCEEN Senior
21 12 10024030621 52440630118 RIVAL DAMIEN VC BLINOIS Senior
22 41 52440030459 FILIONNEAU MATHIEU UNION CYCLISTE PONTCHATEAU Senior
23 21 10024742761 52442440068 TESSIER MATTHIEU ETOILE CYCLISTE DU DON Senior
24 9 10025758635 52440350122 CORNUAILLE BRICE VS MESANGER Senior
25 37 10024095689 44280260103 EDET David VS CHARTRAIN Senior
26 36 10024194309 43352870982 HEDREUX MARCEL EC RENNAISE Senior
27 40 10026026801 52442710051 DELAUNAY VINCENT VELO CLUB DE SAVENAY D1 Op
28 7 10025911512 52440080231 HUCHET THOMAS VELO SPORT VALLETAIS Senior
29 33 10028325600 52492870105 WASSE LAURENT SC BEAUCOUZE Senior
30 4 10070211210 52440020587 CLOAREC BENOIT CC CASTELBRIANTAIS Senior
31 24 10028083504 52442590102 CORBIN SIMON VELO CLUB PORNICHET Senior
32 13 10024040927 52441000080 CORNUAILLE FREDERIC ERDRE ET LOIRE CYCLISTE Senior
33 11 10026180684 52440350155 MARTIN AURELIEN VS MESANGER Senior
34 29 10026123902 52490270264 BARBIN YOHANN BEAUPREAU VELO SPORT Senior
35 1 10078029915 52440020411 BEAUDOIN JEROME CC CASTELBRIANTAIS Senior

Juniors
1 37 10072201427 52442590003 BOLGIANI GABRIEL VELO CLUB PORNICHET Jun 1
2 36 10070730966 52442250040 MAILLARD TIMOTHE PEDALE PUCEULOISE Jun 1
3 38 10074606522 52442590096 LE BOHEC AXEL VELO CLUB PORNICHET Jun 2
4 39 10068871394 52490140009 BARBOT SERAPHIN VELO CLUB LIONNAIS Jun 1
5 31 10069438543 52440020189 PEHUET SEBASTIEN CC CASTELBRIANTAIS Jun 1
6 43 52442250002 BRIAND BBAPTISTE PEDALE PUCEULOISE Junior
7 41 10070348222 52531420142 FAHIER LENAIC ENTENTE CYCLISTE CRAON-RENAZE Jun 2
8 40 10069834526 52531360082 GIRAULT ROMAIN VC CHATEAU GONTIER Jun 2
9 42 10067226539 52440020268 PERRAY PAUL CC CASTELBRIANTAIS Cadet
10 35 10070731067 52442250031 MEREL AXEL PEDALE PUCEULOISE Jun 1
11 34 10027053886 52441030416 CHIRON MATHILDE AC BREVINOIS Espoir
12 33 10068282526 52441030258 GANTIER ALEXANDRE AC BREVINOIS Jun 2
13 32 10026149867 52440030396 TRIBALLIER MARIE ROSE US PONTCHATELAINE Espoir

Cadets
1 11 10068281415 52441030341 RUEL DORIAN AC BREVINOIS Cad 2
2 5 10072010356 52440030071 LUCAS QUENTIN US PONTCHATELAINE Cad 2
3 10 10070715913 52441000265 CHIRON QUENTIN ERDRE ET LOIRE CYCLISTE Cad 2
4 9 10067112765 52440070476 HAMBENNE AXEL UC NANTES ATLANTIQUE Cad 1
5 7 10071283563 52440030370 LE CLAIRE NOA US PONTCHATELAINE Cad 1
6 14 10071185048 52531360079 SEYEUX QUENTIN VC CHATEAU GONTIER Cad 2
7 17 10067525421 43350400343 CHEDALEUX NOAH REDON OC Cad 2
8 1 10069437735 52440020236 PALIERNE MARVIN CC CASTELBRIANTAIS Cad 2
9 6 10072011871 52440030103 PEDRON BAPTISTE US PONTCHATELAINE Cad 1
10 12 10069157647 52442070049 BREMOND SACHA VELO CLUB ANCENIEN Cad 1
11 3 10069286878 52440020547 CHAPON ARTHUR CC CASTELBRIANTAIS Cad 1
12 4 10077561988 52440020590 LERAY CLEMENT CC CASTELBRIANTAIS Cad 2
13 16 10070348828 52531420063 ORILLARD LUCAS ENTENTE CYCLISTE CRAON-RENAZE Cad 1
14 15 10070337310 52531420043 AUBRY THOMAS ENTENTE CYCLISTE CRAON-RENAZE Cad 1
15 8 10072009447 52440030398 TRIBALLIER YAEL US PONTCHATELAINE Cad 2

Remerciements à Fernand HAVARD.

 

Résultats - dimanche, 07 octobre 2018 20:53

CX Nozay

Espoirs /Séniors
1 FERASSE Thibault UC NANTES ATLANTIQUE
2 BOMME Clement VC PAYS DE LOUDEAC
3 LECUYER Antoine AC BREVINOIS
4 BLANCHARD Stanislas VTTARDS GARNACHOIS
5 LECUYER Francois AC BREVINOIS
6 MORINIERE Thomas VELO CLUB DE SAVENAY
7 FOUQUET Valentin VELO CLUB LUCEEN
8 PLANTARD Laurent EV ANGERS DOUTRE
9 DEROUINT Jeremy US VERN CYCLISME
10 BATTEUX Yoann US VERN CYCLISME
11 HERVOUET Boris CYCLISME REGION POUZAUGES
12 SELVESTREL Julien US VERN CYCLISME
13 THOMAS Sylvain VELO CLUB DE SAVENAY
14 CADEAU Florentin ES SEGRE HAUT ANJOU
15 GENET Stephane UC NANTES ATLANTIQUE
16 MALO Nicolas VELO CLUB DE SAVENAY
17 COUTURIER Matthieu OCCV DRAGUIGNAN
18 MORIN Xavier US ST HERBLAIN
19 ABADIE Sylvain SC BRETONNE
20 RUEL Quentin AC BREVINOIS
21 CHERRUAULT Romain
22 HOUSSAIS Jesril ETOILE CYCLISTE DU DON
23 SINGEOT Mathieu CC CASTELBRIANTAIS
24 BLANCHARD Romuald VTTARDS GARNACHOIS
25 DELAGE Kevin VS MESANGER
26 MOQUET Clement OC CYCL.CESSONNAIS
27 CORNUAILLE Brice VS MESANGER
28 BARRE Quentin EC MONTFAUCONNAISE
29 AALOUANE Jamel VELO CLUB LUCEEN
30 LAUREAU Xavier VELO CLUB DE SAVENAY
31 MARTIN Aurelien VS MESANGER
32 DUCHENE Jeremy EV ANGERS DOUTRE
33 CORNUAILLE Frederic ERDRE ET LOIRE CYCLISTE
34 CLOAREC Benoit CC CASTELBRIANTAIS
35 BEAUDOIN Jerome CC CASTELBRIANTAIS
36 BENOIST Daniel UC LANDELLAISE

Juniors
1 ROY Nathan KER BARRES VTT
2 GAUDIN Mathieu VTT VALLEE DU BOEL
3 LAUMONIER Raphaël CC VITREEN
4 CAMENEN Baptiste KER BARRES VTT
5 SUIRE Killian US PONTCHATELAINE
6 PERRAY Paul CC CASTELBRIANTAIS
7 LE PUIL Etienne US PONTCHATELAINE
8 PAILLARD Baptiste CC VITREEN
9 FORTIN Romain CC VITREEN
10 PEHUET Sebastien CC CASTELBRIANTAIS
11 BOURSIER Guillaume GUIDON MACHECOULAIS
12 SIMON Marie VC PAYS DE LOUDEAC
13 TRIBALLIER Marie Rose US PONTCHATELAINE

Cadets
1 RUEL Dorian AC BREVINOIS
2 SEYEUX Quentin VC CHATEAU GONTIER
3 CHEDALEUX Noah REDON OC
4 PALIERNE Marvin CC CASTELBRIANTAIS
5 HEBERT Theo VC SEBASTIENNAIS
6 GIRAUDET Victor VS COUERONNAIS
7 VENEREAU Come US ST HERBLAIN
8 BREMOND Sacha VELO CLUB ANCENIEN
9 COHEN Stefan VC SEBASTIENNAIS
10 SAMAIR Dorian US ST HERBLAIN
11 JAN Katell VC LAILLE VALLONS DE VILAINE
12 TEMPLE Lucas VELO CLUB ANCENIEN
13 COUREAU Augustin CC VITREEN
14 ORILLARD Lucas ENTENTE CYCLISTE CRAON-RENAZE

Minimes
1 CELLE Luca GUEMENE VTT
2 ROUL Clement ERDRE ET LOIRE CYCLISTE
3 RENAUDINEAU Axel UC NANTES ATLANTIQUE
4 PAVAGEAU Louis CC CASTELBRIANTAIS
5 LEMAITRE Andy VELO CLUB PORNICHET
6 DANEL Mathis GUEMENE VTT
7 TESSIER Augustin ERDRE ET LOIRE CYCLISTE
8 BRETECHE Ewen PEDALE PUCEULOISE
9 TERTRAIS Johanne KER BARRES VTT
10 COUREAU Luc CC VITREEN
11 BOUCHEE Gaspard CC CASTELBRIANTAIS
12 SUIGNARD Jakez CC VITREEN
13 PEHUET Nicolas CC CASTELBRIANTAIS
14 DAUDIN PELE Clement ERDRE ET LOIRE CYCLISTE
15 BOUCHET Baptiste REDON OC

Benjamins
1 CHEDALEUX Nolan REDON OC
2 MAHE Arthur US PONTCHATELAINE
3 DEBORDE Tom KER BARRES VTT
4 CORMERAIS Maxime VC SEBASTIENNAIS
5 HORNEC Frans Karl PEDALE PUCEULOISE
6 CORBILLE Jules US PONTCHATELAINE
7 GUILLOCHON Joao LA MALVILLOISE CYCLISME
8 DAYUS Jules ERDRE ET LOIRE CYCLISTE
9 COLIN Louis CC CASTELBRIANTAIS
10 RIPAUD Matheo CC CASTELBRIANTAIS
11 GAUTIER Pierre CC CASTELBRIANTAIS
12 PINARD Matheo CC CASTELBRIANTAIS
13 BONHOMME Marcel Mehdi CC CASTELBRIANTAIS
14 GRIFFON Nathan VELO SPORT VALLETAIS

Pupilles
1 RIPAUD Louka CC CASTELBRIANTAIS
2 BRETECHE Menzo PEDALE PUCEULOISE
3 DAYUS Noe ERDRE ET LOIRE CYCLISTE
4 ORILLARD Nathan ENTENTE CYCLISTE CRAON-RENAZE
5 COLLIN Remi CC CASTELBRIANTAIS
6 SUIGNARD Fanch CC VITREEN
7 RETIF Thalian CC CASTELBRIANTAIS
8 FILLONNEAU BAUDOUIN Louison CC CASTELBRIANTAIS
9 IDRISSIBOUBAKRI Noham CC CASTELBRIANTAIS
10 MARIO Zoe ERDRE ET LOIRE CYCLISTE

Poussins
1 GEFFRAY Lucas CC CASTELBRIANTAIS
2 CHEDALEUX Alana REDON OC
3 PIRAUD Timeo CC CASTELBRIANTAIS
4 BERTIN Raphael PEDALE PUCEULOISE

Remerciements à Fernand HAVARD.

Résultats - lundi, 02 avril 2018 20:58

St Père en Retz PC, min, cad

Cadets
1 RUEL DORIAN AC BREVINOIS Cadet
2 ROYER BORIS GUIDON MACHECOULAIS Cadet
3 LENORMAND QUENTIN AC BREVINOIS Cadet
4 CHAILLOT ENZO PEDALE NANTAISE Cadet
5 PINEAU THITOUAN POC COTE DE LUMIERE Cadet
6 PERRIN ATTILA UC NANTES ATLANTIQUE Cadet
7 BERGAUD LOUIS UC NANTES ATLANTIQUE Cadet
8 MAILLARD TIMOTHE PEDALE PUCEULOISE Cadet
9 MEREL AXEL PEDALE PUCEULOISE Cadet
10 BRIAND BAPTISTE PEDALE PUCEULOISE Cadet
11 HORNEC MICHEL VS DRENNECOIS Cadet
12 LE MOUILLOUR ELOUAN VELO CLUB MONTAIGU Cadet
13 RATICHAUX THEO GUIDON MACHECOULAIS Cadet
14 BROSSEAU CORENTIN VELO CLUB MONTAIGU Cadet
15 MACE NICOLAS BEAUPREAU VELO SPORT Cadet
16 VENEREAU COME US ST HERBLAIN Cadet
17 GESNOUIN KILLIAN UC NANTES ATLANTIQUE Cadet
18 BABIN GREGOIRE AC BREVINOIS Cadet
19 BLANCHARD PAULIN VERRIERES AC Cadet
20 LUCAS QUENTIN US PONTCHATELAINE Cadet
21 SOURGET GABIN US PONTCHATELAINE Cadet
22 SOURGET ELLIOT AC BREVINOIS Cadet
23 LABARRE ALEXANDRE VS MESANGER Cadet
24 FOUCHARD GABRIEL ERDRE ET LOIRE CYCLISTE Cadet
25 HERVOUET PIERRE VELO CLUB MONTAIGU Cadet
26 POIRIER ANTONIN UC NANTES ATLANTIQUE Cadet
27 ORVOEN NATHAN AC BREVINOIS Cadet
28 LEBEAU GABIN PEDALE PUCEULOISE Cadet
29 ALLAIRE NOA ROUE LIBRE ANDREZEENNE COMPETITION Cadet
30 FONDIN PAOLO UC NANTES ATLANTIQUE Cadet
31 COTTEREAU CLEMENT US PONTCHATELAINE Cadet
32 CHAUVEL ALEXANDRE CC VITREEN Cadet
33 CHARRIER ELOI VELO CLUB MONTAIGU Cadet
34 GUILLARD HUGO VS COUERONNAIS Cadet
35 BARBEAU HECTOR UNION CYCLISTE SUD 53 Cadet
36 CAUDAL MATHIAS UC NANTES ATLANTIQUE Cadet
37 BONNAUD SIMON POC COTE DE LUMIERE Cadet
38 COSSARD PIERRE NANTES DOULON VS Cadet
39 LEROUX MEWEN VC SEBASTIENNAIS Cadet
40 POSNIC LOUIS MARIE CV DE CHEMILLE Cadet
41 NOURRY SACHA VELO CLUB PORNICHET Cadet
42 BARRE JULIETTE POC COTE DE LUMIERE Cadet
43 BOSSIS HUGO GUIDON MACHECOULAIS Cadet
44 GAUDIN JEAN GABRIEL US PONTCHATELAINE Cadet
45 DROUAUD LANDRY PEDALE PUCEULOISE Cadet
46 CHAUVEL MARIANNE CC VITREEN Junior
47 MERLE CLEMENT AC BREVINOIS Cadet
48 MUSSEAU YANIS AC BREVINOIS Cadet
49 SOURISSEAU MATEO AC BREVINOIS Cadet

Minimes
1 LENOUVEL NATHAN US PONTCHATELAINE Minime
2 LECOQ THOMAS VC SEBASTIENNAIS Minime
3 TESSIER JEAN ERDRE ET LOIRE CYCLISTE Minime
4 PERRIN FERDINAND UC NANTES ATLANTIQUE Minime
5 CHARTEAU DIEGO AIZENAY VELOS SPORTS Minime
6 HAMBENNE AXEL UC NANTES ATLANTIQUE Minime
7 LEVEQUE THEO AC BREVINOIS Minime
8 JASNOT ELOISE US ST HERBLAIN Cadette
9 FOUCHER AUGUSTIN AC BREVINOIS Minime
10 ORILLARD LUCAS ENTENTE CYCLISTE CRAON-RENAZE Minime
11 RENAUDINEAU LILIAN GUIDON MACHECOULAIS Minime
12 RIALLOT ALEXIS US PONTCHATELAINE Minime
13 GIRAUDET MARIE VS COUERONNAIS Cadette
14 PINOT GUILLAUME US PONTCHATELAINE Minime
15 BRISARD INES VC CHALLANDAIS Minime
16 RENAUDINEAU AXEL UC NANTES ATLANTIQUE Minime
17 BEZIAS AXEL UC NANTES ATLANTIQUE Minime
18 BROSSEAU LEO AC BREVINOIS Minime
19 GOUBAUD MATHEO VC CHALLANDAIS Minime
20 LEMARIE THIBAULT US PONTCHATELAINE Minime
21 IMBERT LILIAN GUIDON MACHECOULAIS Minime
22 GEOFFROY CLEMENT AC BREVINOIS Minime
23 BLINEAU CHOEMET MATHIS UC NANTES ATLANTIQUE Minime
24 DESMARS EMILIEN US PONTCHATELAINE Minime
25 VERONNEAU LOAN COMITE CYCLISTE MONTOIS Minime
26 BRET ALEXIS VS COUERONNAIS Minime
27 GOURHAND NATAN US PONTCHATELAINE Minime
28 IBRY ELLIOT US GUERANDE CYCLISME Minime
29 DESBOIS TOM US GUERANDE CYCLISME Minime
30 TOUZE BASTIEN US PONTCHATELAINE Minime
31 FLEURANCE KHALESI KEYVAN UC NANTES ATLANTIQUE Minime

D1-D2
1 TRICHEREAU CYRILLE OLYMPIC CYCL. NAZAIRIEN D2
2 BRIEAU CHRISTOPHE VC ST GILLES CROIX DE VIE D2
3 LANDAIS GABRIEL VS COUERONNAIS D2
4 ABADIE Sylvain D1
5 BRAULT ALEXIS CS FLECHOIS D1 Op
6 GUIRRIEC TONY LOIRE & SILLON CYCLISME D2 Op
7 JASNOT ROLAND US ST HERBLAIN D1 Op
8 GUILBAUD THOMAS GUIDON MACHECOULAIS D1 Op
9 KERHERVE FREDERIC MONTOIR ATLANTIQUE CYCLISME D1 Op
10 SEBILO NICOLAS OLYMPIC CYCL. NAZAIRIEN D2
11 NAULEAU SYLVAIN AC BREVINOIS D1
12 BENARD THIBAULT VELO CLUB MONTAIGU D2
13 POSNIC LUDOVIC CV DE CHEMILLE D1 Op
14 HUET SEBASTIEN VC BLINOIS D1 Op
15 BOURGEOIS VALENTIN OLYMPIC CYCL. NAZAIRIEN D1 Op
16 LEGUAY YANN AC BREVINOIS D1 Op
17 ROQUILLON YOAN AC BREVINOIS D1 Op
18 LIJEOUR ARNAUD VS COUERONNAIS D2
19 LAVAUD PASCAL VELO CLUB LUCEEN D1 Op
20 DUPONT ROMAIN OLYMPIC CYCL. NAZAIRIEN D1
21 JAULIN VINCENT EC BOUGUENAISIEN D2
22 NAULEAU ROCH PHILIPPE AC BREVINOIS D2
23 ORVOEN FRANCK AC BREVINOIS D2 Op
24 RUEL STEPHANE AC BREVINOIS D1 Op
25 CARCAUD YANNIS US PONTCHATELAINE Junior D2
26 LOUERAT SEBASTIEN AC BREVINOIS D1 Op
27 DELHOMMEAU FABIEN UCP REZEENNE D1
28 AMISSE SYLVAIN UC PAYS DE JOSSELIN D1
29 BELLECULEE VINCENT GUIDON MACHECOULAIS D2
30 BOUYER ALAIN UCP REZEENNE D2
31 HERPIN THIERRY VELO CLUB MONTAIGU D1
32 FAUCHET ROLAND VC CHALLANDAIS D1
33 QUESNEL AUBIN UC NANTES ATLANTIQUE D1 Op
34 BUSSON MAXIME UCA 44 D2
35 MATIGNON PIERRICK UCP REZEENNE D1

D3-D4
1 ROUE BERTRAND Licence FFC D4
2 GESNOUIN LUDOVIC ST JEAN DE MONTS VENDEE CYCLISME D3
3 DELHOMMEAU JOEL UCP REZEENNE D3
4 PRINEAU JULIEN VC CHALLANDAIS D3
5 PIRES GUILLAUME NANTES DOULON VS D3
6 PIRIAC STEPHANE LOIRE & SILLON CYCLISME D3
7 ROUAUD FREDERIC MONTOIR ATLANTIQUE CYCLISME D3
8 GUIBERT ROBERT UCP REZEENNE D3
9 BAILLY CYRILLE VC CHALLANDAIS D3
10 SEIGNARD MICKAEL OLYMPIC CYCL. NAZAIRIEN D3
11 LEMASSON LAURENT UCA 44 D3
12 GOASDOUE JEAN YVES VELO CLUB MONTAIGU D3
13 PECOT JULIEN VELO CLUB ANCENIEN D3
14 BONIN DIDIER GUIDON MACHECOULAIS D3
15 ANDRE STEPHANE NANTES DOULON VS D4
16 VALERO BRUNO AC CHAPELAIN D3
17 PRAT SEBASTIEN VC SEBASTIENNAIS D3
18 MAHE ALAIN US PONTCHATELAINE D4
19 DAVID REGIS ASE MONTBERT D3
20 DESMARS SAMUEL US PONTCHATELAINE D3
21 CAZERES MARC MONTOIR ATLANTIQUE CYCLISME D3
22 COURANT FABIEN VC CHALLANDAIS D3
23 FRICAUD PATRICE UC NANTES ATLANTIQUE D3
24 GARNIER CHRISTOPHE UCP REZEENNE D3
25 HEDAN FRANCK LOIRE & SILLON CYCLISME D3
26 BUCCO JUANITO AC CHAPELAIN D3
27 BRIAND REGIS VC BLINOIS D3
28 EGEE ALAIN AC BREVINOIS D3
29 MARTINEAU CLAUDIC ASE MONTBERT D3
30 JOLLY PASCAL UCP REZEENNE D3
31 GERVAIS ROMAIN VS COUERONNAIS D3
32 MOREAU PASCAL VC CHALLANDAIS D3
33 HERVE THIERRY LA MALVILLOISE CYCLISME D4
34 SOURGET YVONNICK US PONTCHATELAINE D3
35 GUILLERY MICHEL UCP REZEENNE D4
36 BARBIER EMELINE AC BREVINOIS Junior (Junior)
37 RELION ANTHONY EC BOUGUENAISIEN D4
38 BRISARD CHRISTIAN VC CHALLANDAIS D3
39 LEROUX YANN UCP REZEENNE D3
40 LUCAS OLIVIER US PONTCHATELAINE D3
41 RIALLOT CEDRIC MONTOIR ATLANTIQUE CYCLISME D3
42 JAUFFRIT YANNICK AS ST HILAIRE DE RIEZ CYCLISME D4
43 LOQUET ANTHONY PEDALE PUCEULOISE D3
44 UGUEN YANNICK GUIDON MACHECOULAIS D3
45 DEBERNE PIERRE ST JEAN DE MONTS VENDEE CYCLISME D4
46 TERRIEN DAMIEN UC NANTES ATLANTIQUE D3
47 PERRIN DAVID LA MALVILLOISE CYCLISME D3
48 VAILLANT LIONEL NANTES DOULON VS D4
49 ROLLAND ALAIN EC BOUGUENAISIEN D4
50 MARPAUD GILLES LOIRE & SILLON CYCLISME D4
51 GODIN STEPHANE VELO CLUB LUCEEN D3
52 LEBASCLE DOMINIQUE ETOILE CYCLISTE DU DON D3
53 MARZELIERE VINCENT MONTOIR ATLANTIQUE CYCLISME D3
54 GUERIN ANTHONY MONTOIR ATLANTIQUE CYCLISME D3
55 MAHE MAURICE VC BLINOIS D3
56 LE GOFF JACKY VELO CLUB LUCEEN D3
57 GUIBOUIN JEAN MICHEL EC BOUGUENAISIEN D3
58 BENETEAU FABIEN VC ST GILLES CROIX DE VIE D3
59 BRUNE FREDERIC GUIDON MACHECOULAIS D3
60 GANDIN FLORENT VC CHALLANDAIS D3
61 BERRE LUCIEN EC BOUGUENAISIEN D4
62 ARNAULT CHRISTOPHE VC CHALLANDAIS D3
63 MORAN DENIS VC CHALLANDAIS D3
64 ROUAUD REGIS MONTOIR ATLANTIQUE CYCLISME D3
65 JOUNEAU FABRICE AC CHAPELAIN D4
66 GUINHUT DENIS ROUE LIBRE ANDREZEENNE COMPETITION D4

 

Remerciements à Cyrille Dousset.

Résultats - dimanche, 04 mars 2018 20:44

Saint Brévin minimes, cadets

Cadets
1 RUEL Dorian St Brévin AC
2 BABIN Gregoire St Brévin AC
3 LENORMAND Quentin St Brévin AC
4 ROYER Boris Machecoul G
5 LEROUX Mewen St Sébastien
6 GUILLARD Hugo Couëron VS
7 SOURGET Gabin Pontchâteau U
8 MUSSEAU Yanis St Brévin AC
9 GUILLEMIN Hugo Questembert A
10 BOUCHET Antonin Redon OC
11 ORVOEN Nathan St Brévin AC
12 RIVALLAND Kelyan Pontchâteau U
13 SOURGET Elliot St Brévin AC
14 BARBIER Emeline St Brévin AC
15 BIORET Bryan Pontchâteau U
16 LORANT Valentin Pornichet VC
17 RICHARD Louis Machecoul G
18 SOURISSEAU Mateo St Brévin AC
19 JACQUEMIN Antonin Pornichet VC
20 GAUTIER Noe Pontchâteau U

Minimes
1 LENOUVEL Nathan Pontchâteau U
2 TESSIER Jean Erdre Loire
3 LECOQ Thomas St Sébastien
4 PEDRON Baptiste Pontchâteau U
5 RENAUDINEAU Axel Nantes Atlant
6 FOUCHER Augustin St Brévin AC
7 BROSSEAU Leo St Brévin AC
8 BOUCHET Baptiste Redon OC
9 BLINEAU CHOEMET Mathis Nantes Atlant
10 DESMARS Emilien Pontchâteau U
11 CARCAILLON Enzo St Brévin AC
12 GUBBIOTTI Gabin St Brévin AC
13 LEVEQUE Theo St Brévin AC

 

Remerciements à Michel Quirion.

Résultats - lundi, 30 octobre 2017 12:31

CX Teillé

Seniors-Espoirs
1 LECUYER ANTOINE AC BREVINOIS Senior
2 CHEVALIER MAXIME US PONTCHATELAINE Espoir
3 LECUYER FRANCOIS AC BREVINOIS Senior
4 DURAND DYLAN UNION CYCLISTE CHOLET 49 Espoir
5 LANGLAIS ALEXANDRE GUEMENE VTT Espoir
6 FOUQUET VALENTIN US ST HERBLAIN Senior
7 DROUET CEDRIC EC MONTFAUCONNAISE Senior
8 DELHUMEAU BAPTISTE POLE CYCLISME SAUMUROIS Espoir
9 THOMAS SYLVAIN NANTES DOULON VS Senior
10 MORIN XAVIER CC CASTELBRIANTAIS Espoir
11 DELAGE KEVIN VS MESANGER Senior
12 GUITTON VALENTIN JOEL US PONTCHATELAINE Espoir
13 BOUCHEREAU ROMAIN VS CLISSONNAIS Senior
14 PAVY FABIEN SABLE SARTHE CYCLISME PDL Senior
15 CADEAU FLORENTIN ES SEGRE HAUT ANJOU Espoir
16 GENET STEPHANE UC NANTES ATLANTIQUE Senior
17 DROUET CLAUDE VC BLINOIS Senior
18 LE BOHEC THIERRY PEDALE PUCEULOISE Senior
19 RIVAL DAMIEN VC BLINOIS Senior
20 CORNUAILLE BRICE VS MESANGER Senior
21 MALO NATHAN US ST HERBLAIN Espoir
22 RUEL QUENTIN AC BREVINOIS Espoir
23 CORNUAILLE FREDERIC ERDRE ET LOIRE CYCLISTE Senior
24 LEDUC TANGUY VELO SPORT VALLETAIS Espoir
25 MATIGNON PIERRICK UCP REZEENNE Senior
26 CHERRUAULT GLENN VC CHATEAU GONTIER Espoir
27 GUILLOCHON MIKAEL VC SAVENAY Senior
28 MARTIN ETIENNE AC CHAPELAIN Senior
29 RASSIN CLEMENT US GUERANDE Espoir
30 BOISLEVE JOHAN ERDRE ET LOIRE CYCLISTE Senior
31 BLIN NICOLAS ERDRE ET LOIRE CYCLISTE Senior
32 RUEL STEPHANE AC BREVINOIS Senior
33 BENIGUET BRUNO AC CHAPELAIN Senior
34 TRAINEAU LUCAS VELO SPORT VALLETAIS Espoir

Juniors-Dames
1 VERGNE ANTOINE US ST HERBLAIN Jun 2
2 BERNARD LILLYAN GUIDON MACHECOULAIS Jun 1
3 LE BOHEC AXEL VELO CLUB PORNICHET Jun 1
4 CADEAU ADRIEN TEAM U ANJOU 49 Jun 2
5 SUIRE KILLIAN US PONTCHATELAINE Jun 1
6 BOUE ROMAIN ES SEGRE HAUT ANJOU Jun 2
7 GREGOIRE ARTHUR US PONTCHATELAINE Jun 1
8 COCAULT PAUL ERDRE ET LOIRE CYCLISTE Jun 1
9 OLIVIER EVAN US PONTCHATELAINE Jun 1
10 RIVAL LUCILE US ST HERBLAIN Dame
11 TENDRON HIPPOLYTE VC SEBASTIENNAIS Jun 2
12 GANTIER ALEXANDRE AC BREVINOIS Jun 1
13 BOURSIER GUILLAUME GUIDON MACHECOULAIS Jun 1

Cadets
1 RUEL DORIAN AC BREVINOIS Cad 1
2 RATICHAUX THEO GUIDON MACHECOULAIS Cad 2
3 TEXIER LUKA ES SEGRE HAUT ANJOU Cad 2
4 CHARRIER TOM US PONTCHATELAINE Cad 2
5 MEREL AXEL PEDALE PUCEULOISE Cad 2
6 BRIAND BAPTISTE PEDALE PUCEULOISE Cad 2
7 AMOSSE QUENTIN GUEMENE VTT Cad 2
8 PEHUET SEBASTIEN CCC Cad 2
9 COTTEREAU CLEMENT US PONTCHATELAINE Cad 2
10 FOREST EMILIEN US ST HERBLAIN Cad 2
11 LABARRE ALEXANDRE VS MESANGER Cad 1
12 LEROUX CLEMENT VELO CLUB ANCENIEN Cad 1
13 HAMON JULUAN ERDRE ET LOIRE CYCLISTE Cad 1
14 GESNOUIN KILLIAN GUIDON MACHECOULAIS Cad 1
15 BOUCHET ANTONIN REDON OC Cad 2
16 ANDRE GASPARD NANTES DOULON VS Cad 1
17 DUPAS KILLIAN PEDALE PUCEULOISE Cad 2
18 LEBEAU GABIN PEDALE PUCEULOISE Cad 1
19 PALIERNE MARVIN CCC Cad 1
20 TRAVERS THIBAULT VELO CLUB ANCENIEN Cad 1

Minimes
1 ORRIERE MARTIN CC VITREEN Min 2
2 DURAND SAMUEL US PONTCHATELAINE Min 2
3 MARAIS MARTIN CC VITREEN Min 2
4 POUVREAU AURELIEN UC NANTES Min 2
5 HOUIS ESTEBAN US PONTCHATELAINE Min 1
6 COUROUSSE ENZO VELO SPORT VALLETAIS Min 2
7 ROUL CLEMENT ERDRE ET LOIRE CYCLISTE Min 1
8 BREMOND SACHA VELO CLUB ANCENIEN Min 2
9 AUBRY THOMAS ENTENTE CYCLISTE CRAON-RENAZE Min 2
10 CHAPON ARTHUR CC CASTELBRIANTAIS Min 2
11 VALOTAIRE LEO ERDRE ET LOIRE CYCLISTE Min 2
12 LEVEQUE ALBAN VELO SPORT VALLETAIS Min 1
13 BOUCHET BAPTISTE REDON OC Min 1
14 MANDIGOUT MAEL CC CASTELBRIANTAIS Min 1
15 BRIN JADE ERDRE ET LOIRE CYCLISTE Min 1
16 LEMARIE THIBAULT US PONTCHATELAINE Min 2
17 LECOQ THOMAS VC SEBASTIENNAIS Min 2

Benjamins
1 HAMON SIMILIEN ERDRE ET LOIRE CYCLISTE Benj 2
2 PEPION TOMY CC CASTELBRIANTAIS Benj 2
3 BRETECHE EWEN PEDALE PUCEULOISE Benj 2
4 DUMAS LENY US PONTCHATELAINE Benj 1
5 ROBERT MORGANE CC CASTELBRIANTAIS Benj 2
6 TENDRON GUSTAVE VC SEBASTIENNAIS Benj 2
7 TESSIER AUGUSTIN ERDRE ET LOIRE CYCLISTE Benj 2
8 LE BOHEC LUCAS PEDALE PUCEULOISE Benj 1
9 GUILLOCHON JOAO VELO CLUB DE SAVENAY Benj 1
10 DAUDIN PELE CLEMENT ERDRE ET LOIRE CYCLISTE Benj 2
11 NEVEUX MAEVA CC CASTELBRIANTAIS Benj 2
12 CHALAYE LOUIS ERDRE ET LOIRE CYCLISTE Benj 1
13 HERY SEBASTIEN ERDRE ET LOIRE CYCLISTE Benj 1
14 ETENEAU RUBEN UC ENTRAMMES PARNE FORCE Benj 2
15 RIPAUD MATHEO CC CASTELBRIANTAIS Benj 1
16 BELAUD TIMOTHE ERDRE ET LOIRE CYCLISTE Benj 2
17 VERGNE LILI ROSE US ST HERBLAIN Benj 2
18 PINARD MATHEO CC CASTELBRIANTAIS Benj 1
19 BONHOMME AIA CC CASTELBRIANTAIS Benj 2
20 PEHUET NICOLAS CC CASTELBRIANTAIS Benj 2

Poussins
1 DAYUS NOE ERDRE ET LOIRE CYCLISTE Pou 2
2 COUE MAXENCE PEDALE PUCEULOISE Pou 2
3 GEFFRAY LUCAS CC CASTELBRIANTAIS Pou 1
4 RIPAUD LOUKA CC CASTELBRIANTAIS Pou 2
5 MARION ZOE ERDRE ET LOIRE CYCLISTE Pou 1
6 MICHEL VICTOR ERDRE ET LOIRE CYCLISTE Pou 1
7 CHALAYE AUGUSTIN ERDRE ET LOIRE CYCLISTE Pou 1
8 IDRISSIBOUBAKRI NOHAM CC CASTELBRIANTAIS Pou 2

Pupilles
1 DAYUS JULES ERDRE ET LOIRE CYCLISTE Pup 2
2 LEBRANCHU BRYCE US PONTCHATELAINE Pup 2
3 MORANTIN NOLAN AC BREVINOIS Pup 2
4 JOUNEAU NOE AC CHAPELAIN Pup 2
5 LEMARIE ANTHOINE US PONTCHATELAINE Pup 2
6 BONHOMME MARCEL MEHDI CC CASTELBRIANTAIS Pup 2
7 BRETECHE MENZO PEDALE PUCEULOISE Pup 1
8 MARTINEAU THEO CS DOURDANNAIS Pup 2
9 BOISLEVE MATTHIAS ERDRE ET LOIRE CYCLISTE Pup 2

Pré-licenciés
1 COLIN NATHAN US PONTCHATELAINE Prél 3

 

Remerciements à Nicolas Blin.

Flux d'actualité

pa effetsdecouleurs 2018

Please publish modules in offcanvas position.